Wind_Speed
34 34 35 33 31 31 30 26 24 24 19 14 15 16 17 16 18 21 24 25 26 26 25 24 22 22 24 22 25 27 31 25 14 18 23 29 38 70
32 31 30 30 30 29 29 27 23 20 20 19 17 18 21 22 22 22 24 27 26 27 27 26 24 23 23 23 21 23 32 31 20 19 26 34 42 63
29 29 29 28 28 28 27 27 26 26 23 24 25 24 23 22 23 20 21 24 26 28 30 28 26 25 24 23 21 22 23 25 30 21 29 34 50 58
29 31 27 27 25 25 25 26 26 26 26 24 26 27 26 26 26 25 25 24 25 27 29 30 29 27 25 25 23 22 20 21 22 27 32 46 54 59
31 32 31 29 28 28 29 28 27 28 29 28 24 24 25 25 25 26 26 25 24 26 29 30 32 31 29 26 25 23 22 21 19 19 31 50 47 59
36 36 35 35 34 33 33 32 32 32 30 30 30 27 25 24 25 24 24 26 26 26 28 30 30 32 32 31 27 25 24 22 19 17 26 39 47 61
41 42 42 41 41 40 39 39 37 37 34 34 34 32 29 28 28 29 26 24 25 23 25 28 30 31 32 34 33 30 28 24 21 18 15 32 40 53
50 49 48 48 49 48 48 47 45 44 42 38 38 37 34 31 30 32 31 29 28 27 26 25 26 28 30 32 34 35 31 29 26 21 19 15 36 44
55 56 57 56 54 54 55 55 54 52 50 47 44 42 40 36 34 32 32 34 30 30 32 30 28 25 27 30 33 35 37 34 30 28 24 23 20 31
65 64 65 66 64 63 64 63 61 58 55 52 52 50 45 43 40 38 38 36 36 35 35 39 32 31 30 28 30 33 34 37 37 35 32 30 27 27
75 75 75 76 75 73 72 72 69 67 61 59 59 58 54 52 49 47 46 42 42 42 38 40 37 35 36 35 33 31 31 34 37 40 41 38 35 33
83 83 83 83 83 81 80 79 78 75 72 68 67 66 64 61 59 55 54 52 50 50 49 45 47 45 44 41 40 39 38 36 35 38 42 44 44 42
87 87 88 89 90 91 91 88 85 84 81 78 76 74 72 70 68 65 64 61 57 55 57 53 55 53 51 51 50 49 47 45 43 42 40 42 46 48
98 97 96 94 93 94 93 91 91 91 89 88 87 85 83 80 79 78 76 72 69 68 68 65 63 62 60 59 60 57 55 54 53 52 50 48 48 47
96 96 98 101 100 98 98 96 92 92 93 94 95 96 94 91 89 87 85 83 81 79 76 75 73 73 71 69 69 67 65 64 64 63 59 59 58 57
89 90 91 94 94 93 94 93 94 93 95 96 95 96 96 96 96 94 94 91 88 89 87 84 82 80 79 77 75 77 76 73 72 70 68 69 69 68
90 90 88 88 88 88 89 89 88 85 85 88 90 92 94 96 97 96 96 95 94 96 95 93 91 88 85 83 81 82 81 81 80 79 77 77 77 77
91 91 90 89 89 90 90 89 87 85 84 83 84 87 89 90 92 95 97 97 95 97 98 97 93 91 90 89 89 91 87 86 87 86 86 86 86 84
92 90 87 88 87 89 90 90 90 90 88 86 86 85 84 85 86 87 89 92 95 96 97 97 96 94 93 92 95 93 92 93 92 92 92 91 92 91
91 90 89 88 88 88 89 90 90 90 90 89 88 89 91 91 91 90 88 88 87 88 90 90 91 93 90 91 95 98 97 96 92 91 91 91 93 94
90 87 87 88 88 88 87 88 88 89 90 90 88 87 89 92 93 94 94 92 90 89 88 88 89 86 84 83 85 91 91 88 87 87 87 88 88 89
84 84 84 83 82 82 81 82 82 84 85 87 88 87 86 86 87 90 92 92 90 91 92 92 91 89 85 83 85 86 86 83 83 83 84 85 85 85
78 77 77 77 77 76 76 76 77 79 81 82 83 85 86 86 87 86 86 89 90 89 91 92 92 91 90 88 87 86 88 86 83 82 82 80 79 80
Wind_Direction
298 304 312 325 339 348 351 353 351 342 334 326 321 309 298 294 285 278 278 271 271 263 257 267 275 287 300 316 309 294 301 294 255 218 212 213 216 202
293 298 311 324 334 341 345 342 338 334 330 329 323 314 306 295 284 281 279 279 271 261 254 261 271 276 291 306 320 304 288 289 272 223 212 211 212 203
287 294 305 318 328 332 336 336 333 327 320 312 312 313 307 304 299 287 278 285 277 265 256 258 264 272 281 293 301 311 314 308 281 234 213 212 198 205
282 288 299 309 318 322 327 332 326 323 324 320 306 304 302 299 297 296 289 286 283 274 263 261 266 268 272 281 294 300 309 313 293 259 214 205 201 206
281 287 295 299 305 308 311 317 318 318 313 311 314 313 309 303 299 296 294 290 284 281 275 268 264 267 270 271 279 289 302 313 313 266 233 207 215 214
280 284 288 294 297 299 302 303 304 306 310 306 303 300 303 309 310 309 304 297 292 282 278 276 274 269 268 269 269 272 281 295 305 305 242 229 223 225
279 282 285 287 289 292 294 295 295 295 297 303 302 297 292 291 295 299 303 306 305 298 287 282 280 276 271 267 268 269 271 275 285 294 279 240 227 219
279 279 280 281 284 287 289 290 291 291 291 295 296 293 293 287 286 286 290 291 296 298 298 294 282 276 274 269 266 265 268 270 270 275 283 270 235 231
276 277 278 279 279 280 284 285 286 289 287 289 290 288 284 283 283 286 285 285 284 286 288 288 291 291 285 274 269 264 262 264 267 266 266 272 269 246
275 275 275 276 277 277 278 279 281 282 281 283 283 285 279 280 279 281 282 283 283 280 279 281 280 284 285 286 282 275 268 260 260 263 263 259 260 263
276 277 276 276 277 277 277 278 278 277 277 276 276 279 277 276 276 275 277 280 278 278 276 277 279 277 277 279 280 281 279 273 264 257 257 258 256 253
274 274 274 274 274 274 275 276 275 276 276 275 273 274 274 274 274 273 272 273 272 273 274 274 276 276 275 275 276 276 275 274 273 268 261 257 254 254
271 271 272 273 274 274 273 272 272 273 272 272 272 272 272 272 272 271 272 271 270 269 272 271 271 272 272 274 273 273 272 272 270 267 266 263 260 257
270 269 270 271 271 272 272 272 271 270 268 269 269 269 269 269 269 270 271 270 269 269 271 271 271 272 272 272 271 270 270 270 269 268 266 264 263 262
274 272 271 269 269 270 269 268 268 268 268 268 267 267 268 268 268 267 268 268 269 268 267 267 268 270 271 270 270 269 268 267 265 266 266 266 265 262
272 272 272 271 271 272 272 271 269 269 268 267 267 267 266 267 266 266 267 267 266 267 268 268 268 270 270 269 267 266 265 265 265 264 264 264 265 265
273 272 272 271 271 270 271 271 270 269 268 267 266 265 264 265 265 265 265 266 266 266 266 266 266 266 267 266 265 265 265 265 265 265 263 262 262 262
274 274 272 271 270 270 270 270 269 269 269 268 267 266 265 263 263 263 263 263 264 264 265 266 266 266 265 263 262 264 265 265 266 265 264 263 262 261
274 272 270 270 270 270 269 269 268 268 268 267 265 265 265 265 264 263 263 262 262 262 263 264 264 264 264 264 263 263 263 265 267 264 262 262 263 262
271 271 270 270 269 269 269 270 270 269 268 267 265 263 262 263 263 263 262 262 262 262 262 262 261 261 261 262 264 265 264 263 263 264 264 262 262 262
271 271 270 269 269 269 268 268 268 268 268 268 267 265 263 262 262 262 261 261 261 260 260 260 260 260 260 260 261 261 262 261 261 261 261 261 261 261
273 272 272 271 269 268 268 268 267 267 266 266 266 266 265 263 262 260 261 261 261 260 259 260 260 261 260 259 259 260 261 260 260 259 260 260 260 261
275 274 273 272 271 270 269 268 267 266 265 264 264 264 264 264 263 262 261 261 259 260 260 260 261 260 260 260 260 260 260 261 261 261 261 261 262 261
Height
10562 10558 10553 10546 10538 10532 10526 10522 10519 10515 10513 10511 10509 10509 10508 10509 10509 10508 10508 10507 10507 10508 10509 10509 10509 10508 10506 10502 10497 10492 10487 10486 10487 10486 10490 10496 10505 10514
10553 10551 10547 10542 10535 10530 10525 10521 10519 10516 10513 10511 10510 10509 10506 10504 10504 10503 10502 10500 10500 10501 10502 10503 10503 10503 10501 10498 10495 10491 10487 10483 10486 10489 10491 10496 10502 10513
10544 10543 10540 10536 10532 10527 10523 10519 10515 10513 10511 10509 10506 10504 10503 10500 10498 10497 10496 10495 10493 10493 10495 10496 10497 10496 10495 10493 10492 10489 10486 10481 10480 10487 10489 10493 10500 10510
10535 10534 10533 10529 10527 10523 10520 10517 10513 10509 10506 10505 10502 10499 10497 10495 10492 10491 10490 10489 10487 10486 10487 10489 10489 10490 10489 10488 10487 10485 10483 10481 10478 10480 10486 10491 10496 10502
10527 10525 10524 10522 10520 10517 10514 10511 10509 10505 10502 10499 10498 10495 10492 10489 10487 10484 10482 10481 10481 10479 10478 10479 10481 10482 10482 10483 10482 10480 10479 10477 10474 10474 10480 10486 10493 10497
10518 10516 10515 10513 10511 10509 10507 10504 10501 10498 10496 10493 10491 10490 10487 10486 10482 10480 10478 10475 10474 10473 10471 10470 10471 10473 10474 10475 10476 10476 10475 10474 10472 10470 10471 10479 10486 10490
10508 10506 10504 10503 10501 10499 10497 10494 10492 10489 10488 10486 10483 10481 10480 10479 10476 10474 10473 10471 10467 10466 10465 10464 10463 10463 10464 10465 10466 10468 10469 10469 10469 10468 10466 10468 10474 10479
10496 10495 10492 10490 10489 10487 10485 10482 10481 10479 10477 10476 10473 10471 10470 10469 10468 10466 10465 10464 10461 10459 10458 10456 10454 10454 10454 10455 10457 10459 10460 10462 10463 10463 10462 10462 10465 10470
10480 10478 10476 10475 10475 10473 10471 10469 10467 10466 10465 10464 10462 10460 10459 10459 10457 10456 10455 10454 10454 10452 10449 10448 10447 10446 10445 10445 10446 10449 10451 10452 10453 10455 10456 10457 10458 10459
10463 10461 10458 10456 10457 10457 10455 10453 10452 10450 10450 10451 10447 10445 10445 10445 10446 10445 10444 10444 10442 10442 10442 10437 10440 10438 10437 10436 10436 10437 10439 10441 10444 10446 10447 10449 10451 10451
10442 10442 10439 10435 10435 10436 10435 10433 10433 10432 10435 10433 10431 10429 10429 10430 10431 10432 10429 10431 10429 10428 10430 10427 10428 10429 10428 10427 10427 10427 10428 10429 10431 10434 10437 10439 10441 10443
10417 10416 10416 10412 10410 10411 10412 10412 10410 10410 10413 10414 10413 10412 10411 10411 10413 10415 10415 10415 10414 10412 10414 10416 10413 10416 10416 10416 10416 10417 10417 10418 10419 10420 10422 10425 10428 10431
10386 10385 10385 10385 10384 10384 10385 10386 10386 10386 10386 10388 10389 10389 10390 10391 10392 10394 10394 10396 10396 10397 10394 10401 10397 10400 10401 10401 10402 10402 10404 10405 10405 10408 10410 10411 10413 10416
10356 10354 10352 10352 10353 10353 10354 10355 10357 10358 10358 10360 10360 10360 10363 10366 10367 10368 10372 10375 10376 10375 10377 10378 10379 10381 10384 10383 10383 10386 10387 10388 10389 10391 10394 10396 10398 10400
10325 10323 10319 10318 10320 10320 10322 10323 10324 10326 10329 10330 10330 10331 10334 10336 10338 10340 10344 10346 10349 10350 10352 10354 10357 10358 10362 10364 10363 10365 10367 10368 10370 10372 10376 10378 10379 10381
10295 10292 10290 10287 10286 10287 10287 10290 10294 10295 10296 10297 10300 10301 10302 10305 10306 10311 10314 10318 10321 10320 10323 10327 10330 10334 10336 10338 10341 10338 10340 10345 10347 10351 10355 10356 10357 10359
10265 10264 10262 10259 10257 10256 10257 10257 10258 10262 10265 10265 10268 10269 10270 10273 10274 10278 10281 10286 10290 10289 10291 10297 10302 10307 10310 10312 10314 10311 10313 10317 10320 10326 10330 10331 10332 10333
10232 10232 10231 10230 10229 10227 10225 10226 10228 10230 10233 10236 10236 10237 10238 10240 10242 10244 10248 10252 10257 10258 10260 10263 10270 10276 10281 10283 10283 10282 10287 10289 10291 10296 10301 10302 10302 10304
10199 10200 10200 10199 10198 10197 10196 10195 10194 10196 10202 10205 10206 10206 10207 10208 10210 10212 10215 10218 10222 10225 10227 10230 10235 10242 10248 10252 10248 10255 10257 10259 10260 10263 10267 10271 10271 10273
10165 10166 10167 10167 10167 10167 10165 10165 10164 10165 10165 10169 10174 10176 10176 10177 10178 10180 10182 10186 10190 10192 10195 10197 10201 10203 10211 10217 10222 10219 10220 10221 10228 10233 10238 10241 10241 10241
10130 10133 10133 10134 10133 10133 10133 10134 10134 10134 10133 10134 10136 10141 10144 10145 10148 10148 10150 10154 10157 10160 10163 10164 10164 10171 10178 10186 10190 10185 10183 10193 10197 10201 10204 10207 10209 10212
10099 10099 10098 10099 10100 10101 10103 10104 10104 10103 10103 10103 10103 10105 10108 10111 10115 10116 10118 10120 10126 10129 10131 10132 10134 10139 10147 10153 10155 10155 10156 10161 10166 10170 10173 10176 10179 10183
10069 10070 10069 10068 10069 10069 10072 10073 10074 10073 10071 10072 10074 10075 10075 10078 10081 10085 10087 10088 10091 10096 10100 10102 10104 10109 10115 10121 10125 10128 10128 10131 10138 10142 10143 10147 10153 10155